Regional Weather Roundup
Issued by NWS State College, PA

Current Version | Previous Version | Text Only | Print | Product List | Glossary On
Versions: 1 2 3 4 5 6 7 8 9 10 11 12 13 14 15 16 17 18 19 20 21 22 23 24 25 26 27 28 29 30 31 32 33 34 35 36 37 38 39 40 41 42 43 44 45 46 47 48 49 50
000
ASUS41 KCTP 180310
RWRCTP

REGIONAL WEATHER ROUNDUP
NATIONAL WEATHER SERVICE STATE COLLEGE PA
1100 PM EDT FRI APR 17 2015

Note: "fair" indicates few or no clouds below 12,000 feet with no
significant weather and/or obstructions to visibility.

* = STATION THAT DOES NOT REPORT PRECIPITATION /E.G. RAIN...SNOW...ETC/
    THUNDER OR FOG.

PAZ002>004-007>009-013>016-020>023-029>032-180400-
WESTERN PENNSYLVANIA

CITY           SKY/WX    TMP DP  RH WIND       PRES   REMARKS
ERIE           CLEAR     53  45  74 CALM      30.04S
MEADVILLE      CLEAR     54  45  71 CALM      30.05S
FRANKLIN*      CLEAR     54  43  66 CALM      30.07F
NEW CASTLE     FAIR      57  47  69 CALM      30.07R
BEAVER COUNTY  NOT AVBL
BUTLER*        PTCLDY    55  46  71 NE3       30.08R
PITTSBURGH INT PTCLDY    61  47  59 N6        30.05R
PITTSBURGH     PTCLDY    59  45  59 N7        30.04R
INDIANA*       CLEAR     50  48  93 CALM      30.08S
LATROBE        NOT AVBL
WASHINGTON CO* MOCLDY    50  46  87 CALM      30.07R
$$

PAZ004>006-010>012-017>019-024>028-033>037-041-042-045-046-049>053-180400-
CENTRAL PENNSYLVANIA

CITY           SKY/WX    TMP DP  RH WIND       PRES   REMARKS
BRADFORD       CLEAR     48  40  73 CALM      30.05S
DUBOIS         CLEAR     57  44  62 NW5       30.05R
CLEARFIELD     CLEAR     54  47  77 S3        30.04S
JOHNSTOWN      PTCLDY    57  46  66 NW6       30.05S
ALTOONA        PTCLDY    55  46  71 N8        30.04S
STATE COLLEGE  CLEAR     59  47  65 CALM      30.03S
WILLIAMSPORT   CLOUDY    56  50  80 CALM      29.99R
SELINSGROVE    PTCLDY    50  47  89 CALM      29.99F
FT INDIANTOWN  CLEAR     64  49  58 NW7       29.98F
CAPITAL CITY   CLEAR     56  48  74 SW6       29.99S
HARRISBURG     PTCLDY    57  50  77 CALM      29.98S
YORK           CLEAR     52  49  89 CALM      29.99S
$$

PAZ038>040-043-044-047-048-054-055-060>062-067>071-180400-
EASTERN PENNSYLVANIA

CITY           SKY/WX    TMP DP  RH WIND       PRES   REMARKS
SCRANTON       CLEAR     57  49  74 E5        30.00R
MOUNT POCONO   PTCLDY    50  47  89 CALM      30.01S
ALLENTOWN      PTCLDY    56  50  80 W3        29.97S
QUAKERTOWN*    PTCLDY    55  54  94 CALM      29.98F
READING        PTCLDY    63  52  67 W5        29.97F
LANCASTER      CLEAR     58  50  75 W3        29.98S
COATESVILLE    CLEAR     59  54  82 NW5       29.99F
POTTSTOWN      CLEAR     57  52  83 CALM      29.98F
BLUE BELL      CLEAR     57  54  88 CALM      29.96F
DOYLESTOWN     PTCLDY    58  54  86 CALM      29.97S
WILLOW GROVE   NOT AVBL
NORTH PHILA    CLEAR     62  52  69 W3        29.98S
PHILADELPHIA   PTCLDY    65  57  75 SW7       29.97F
$$



USA.gov is the U.S. government's official web portal to all federal, state and local government web resources and services.